Погода в Новоселье

Россия / Омская область     54°52′02″N   74°14′34″E
темп.,
°C
ветер,
м/с
пор.,
м/с
влажн.,
%
обл.,
%
осадки,
мм/ч
давл.,
гПа
погр.,
м
23 апреля, пт
пт2300:00+1юв35610 0.0 104580
03:000ю33602 0.0 104650
06:00−1ююв33595 0.0 104655
09:00+3ююв464311 0.0 1046713
12:00+6ю34360 0.0 10451431
15:00+8ююв34320 0.0 10431470
18:00+8ююв44330 0.0 10421443
21:00+5юв454828 0.0 104281
24 апреля, сб
сб2400:00+3ю34578 0.0 104147
03:00+1юв346378 0.0 104044
06:000ююв346917 0.0 103959
09:00+5ююв465257 0.0 1038467
12:00+8ю553797 0.0 10361396
15:00+10ю5633100 0.0 10341663
18:00+10ю4533100 0.0 10331553
21:00+7ююв3649100 0.0 1032140
25 апреля, вс
вс2500:00+6ююв4954100 0.0 1031214
03:00+5юв41058100 0.0 1030225
06:00+4юв51258100 0.0 1029268
09:00+7юв61148100 0.0 1028522
12:00+10ююв81037100 0.0 1026964
15:00+11ююв81035100 0.0 10241454
18:00+13юв6103236 0.0 10222024
21:00+9ююв494389 0.0 1022176
26 апреля, пн
пн2600:00+8юв6135392 0.0 1020281
03:00+7ююв5115766 0.0 1019228
06:00+5ююв4670100 0.0 101988
09:00+8ю4976100 0.4 1018276
12:00+14зюз8116467 1.3 10171307
15:00+15з91131100 0.3 10172232
18:00+14з6103097 0.3 10182455
21:00+9зюз4104462 0.0 1019199
27 апреля, вт
вт2700:00+8зюз41050100 0.0 1020210
03:00+7зюз3756100 0.0 1021126
06:00+6зюз356099 0.0 102183
09:00+10юз3447100 0.0 1021273
12:00+13юз5636100 0.0 10211233
15:00+9ююз5758100 0.1 1020663
18:00+10ююв61060100 0.2 1016536
21:00+9вюв61475100 1.3 1012389